Current weather by "City, St" or "zip code"  
 

Current Conditions: Mobile, Mobile Downtown Airport, AL

Mostly Cloudy


71.0 F

Last Updated on Oct 31 2020, 12:53 pm CDT
Humidity: 55%
Wind Speed: 5.8 mph
Barometer 30.22 in
Dewpoint: 54.0 F
Visibility: 10.00 mi
Precip: --
Heat Index: NA
Wind Chill: NA
Current conditions at:

Mobile, Mobile Downtown Airport, AL (KBFM)

Lat: 30.61389 Lon: 88.06333

Local Radar Image active severe weather and emergency alerts image image weather storm and storm spotter reports image weather observation monitoring service image
Local
Radar
Active
Alerts
Storm Reports Obs
Monitoring

Sign-up For Email & Text Message Weather Alert Notification Services



Advertise Here

Observation History for Mobile, Mobile Downtown Airport, AL


Time Wind
(mph)
Vis
(mi)
Weather Precip (in) Temperature (F) Relative
Humidity
Wind
Chill
(F)
Heat
Index
(F)
Pressure
Air Dwpt altimeter
(in)
sea level
(mb)
Rmks
12:53 pm CDT 5.8 10.00 Mostly Cloudy -- 71.0 54.0 55% NA NA 30.22 1023.3
11:53 am CDT NE 6.9 10.00 Fair -- 69.0 52.0 55% NA NA 30.25 1024.1
10:53 am CDT NE 5.8 10.00 Partly Cloudy -- 63.0 48.9 60% 63 NA 30.26 1024.6
9:53 am CDT NE 8.1 10.00 Partly Cloudy -- 60.0 50.0 70% 59 NA 30.26 1024.7
8:53 am CDT N 8.1 10.00 Fair -- 56.0 48.9 77% 54 NA 30.26 1024.6
7:53 am CDT N 6.9 10.00 Fair -- 50.0 46.9 89% 47 NA 30.25 1024.3
6:53 am CDT NW 8.1 10.00 Fair -- 48.0 45.0 89% 44 NA 30.23 1023.7
5:53 am CDT N 4.6 10.00 Fair -- 51.0 46.9 86% 50 NA 30.22 1023.2
4:53 am CDT N 5.8 10.00 Fair -- 50.0 46.9 89% 48 NA 30.21 1022.8
3:53 am CDT NW 6.9 10.00 Fair -- 50.0 46.9 89% 47 NA 30.21 1022.9
2:53 am CDT N 6.9 10.00 Fair -- 49.0 46.9 93% 46 NA 30.20 1022.7
1:53 am CDT NW 6.9 10.00 Fair -- 49.0 46.9 93% 46 NA 30.21 1022.9
12:53 am CDT NW 6.9 10.00 Fair -- 50.0 46.9 89% 47 NA 30.21 1022.9
11:53 pm CDT NW 6.9 10.00 Fair -- 50.0 46.9 89% 47 NA 30.21 1022.8
10:53 pm CDT N 8.1 10.00 Fair -- 52.0 46.9 83% 49 NA 30.21 1022.8
9:53 pm CDT NW 6.9 10.00 Fair -- 53.0 48.0 83% 51 NA 30.21 1023.0
8:53 pm CDT N 9.2 10.00 Fair -- 55.0 46.9 74% 52 NA 30.20 1022.7
7:53 pm CDT N 8.1 10.00 Fair -- 56.0 46.9 72% 54 NA 30.19 1022.4
6:53 pm CDT N 10.4 10.00 Fair -- 57.0 46.0 67% 55 NA 30.18 1021.9
5:53 pm CDT N 10.4 10.00 Fair -- 59.0 46.0 62% 57 NA 30.16 1021.4
4:53 pm CDT N 12.7 10.00 Fair -- 63.0 46.0 54% 62 NA 30.15 1020.8
3:53 pm CDT N 15.0 10.00 Fair -- 64.0 46.0 52% NA NA 30.13 1020.4
2:53 pm CDT N 15.0 10.00 Fair -- 63.0 46.0 54% 61 NA 30.14 1020.6
1:53 pm CDT N 13.8 10.00 Partly Cloudy -- 62.0 48.0 60% 60 NA 30.16 1021.1

Regional Weather Observation


Mobile, Mobile Downtown Airport, AL (KBFM)

Mostly Cloudy
71.0 F

Moss Point - Trent Lott International Airport, MS (KPQL)

Partly Cloudy
74.0 F

Keesler Air Force Base / Biloxi, MS (KBIX)

Fair
70.0 F

Sonny Callahan Airport, AL (KCQF)

Partly Cloudy
70.0 F

Jack Edwards Airport, AL (KJKA)

Heavy Rain
74.0 F

Pensacola Naval Air Station, FL (KNPA)

A Few Clouds
73.0 F